San Luis Obispo, CA

10:52 PM PDT on April 21, 2018 (GMT -0700)
San Luis Obispo County-McChesney

Weather History for KSBP - February, 2013

Change the Weather History Date:

Wednesday, February 20, 2013

  Actual Average Record
Temperature  
Mean Temperature 45 °F -  
Max Temperature 57 °F 65 °F 81 °F (1965)
Min Temperature 33 °F 43 °F 30 °F (2006)
Degree Days  
Heating Degree Days 20    
Moisture  
Dew Point 38 °F    
Average Humidity 75    
Maximum Humidity 96    
Minimum Humidity 51    
Precipitation  
Precipitation 0.00 in - - ()
Sea Level Pressure  
Sea Level Pressure 29.96 in    
Wind  
Wind Speed 6 mph (NNW)    
Max Wind Speed 17 mph    
Max Gust Speed 18 mph    
Visibility 10 miles    
Events      
Averages and records for this station are not official NWS values.
T = Trace of Precipitation, MM = Missing Value Source: NWS Daily Summary

Daily Weather History Graph

Daily Weather History Graph

Search for Another Location

Airport or City:

Astronomy

Feb. 20, 2013 Rise Set
Actual Time 6:42 AM PST 5:50 PM PST
Civil Twilight 6:17 AM PST 6:15 PM PST
Nautical Twilight 5:47 AM PST 6:45 PM PST
Astronomical Twilight 5:18 AM PST 7:14 PM PST
Moon 1:22 PM PST (2/20) 3:00 AM PST (2/20)
Length of Visible Light 11h 58m
Length of Day
11h 07m
Waxing Gibbous, 77% of the Moon is Illuminated
Feb 20
Waxing Gibbous
Feb 25
Full
Mar 4
Last Quarter
Mar 11
New
Mar 19
First Quarter

Hourly Weather History & Observations

Time (PST) Temp. Windchill Dew Point Humidity Pressure Visibility Wind Dir Wind Speed Gust Speed Precip Events Conditions
12:56 AM 35.1 °F 32.2 °F 34.0 °F 96% 29.83 in 10.0 mi SE 3.5 mph - N/A   Clear
1:56 AM 35.1 °F - 34.0 °F 96% 29.84 in 10.0 mi Calm Calm - N/A   Clear
2:56 AM 33.1 °F - 32.0 °F 96% 29.85 in 10.0 mi Calm Calm - N/A   Clear
3:56 AM 37.0 °F 34.5 °F 32.0 °F 82% 29.86 in 10.0 mi West 3.5 mph - N/A   Clear
4:56 AM 39.0 °F 34.8 °F 33.1 °F 79% 29.89 in 10.0 mi North 5.8 mph - N/A   Clear
5:56 AM 36.0 °F 31.1 °F 32.0 °F 86% 29.90 in 10.0 mi SSW 5.8 mph - N/A   Partly Cloudy
6:56 AM 37.0 °F - 32.0 °F 82% 29.93 in 10.0 mi Calm Calm - N/A   Clear
7:56 AM 42.1 °F - 33.1 °F 70% 29.96 in 10.0 mi Calm Calm - N/A   Clear
8:56 AM 46.0 °F 41.4 °F 34.0 °F 63% 29.97 in 10.0 mi North 9.2 mph 18.4 mph N/A   Clear
9:56 AM 51.1 °F - 36.0 °F 56% 29.98 in 10.0 mi North 10.4 mph 17.3 mph N/A   Clear
10:56 AM 52.0 °F - 35.1 °F 53% 29.99 in 10.0 mi NNE 11.5 mph - N/A   Clear
11:56 AM 55.0 °F - 37.0 °F 51% 29.99 in 10.0 mi North 9.2 mph - N/A   Clear
12:56 PM 55.9 °F - 37.9 °F 51% 29.96 in 10.0 mi Variable 4.6 mph - N/A   Scattered Clouds
1:56 PM 57.0 °F - 39.0 °F 51% 29.96 in 10.0 mi NW 15.0 mph - N/A   Partly Cloudy
2:56 PM 55.9 °F - 42.1 °F 60% 29.96 in 10.0 mi NW 12.7 mph - N/A   Clear
3:56 PM 54.0 °F - 43.0 °F 66% 29.97 in 10.0 mi NW 17.3 mph - N/A   Clear
4:56 PM 52.0 °F - 43.0 °F 71% 29.97 in 10.0 mi WNW 16.1 mph - N/A   Clear
5:56 PM 50.0 °F - 44.1 °F 80% 29.99 in 9.0 mi WNW 8.1 mph - N/A   Clear
6:56 PM 48.9 °F - 44.1 °F 83% 30.01 in 9.0 mi NW 10.4 mph - N/A   Clear
7:56 PM 46.0 °F 42.5 °F 43.0 °F 89% 30.02 in 8.0 mi NW 6.9 mph - N/A   Clear
8:56 PM 46.0 °F 41.9 °F 42.1 °F 86% 30.04 in 9.0 mi NW 8.1 mph - N/A   Clear
9:56 PM 46.9 °F - 42.1 °F 83% 30.05 in 9.0 mi North 5.8 mph - N/A   Clear
10:56 PM 45.0 °F 41.2 °F 41.0 °F 86% 30.07 in 9.0 mi NNW 6.9 mph - N/A   Clear
11:56 PM 44.1 °F 40.8 °F 37.9 °F 79% 30.08 in 10.0 mi NNW 5.8 mph - N/A   Clear